Location: Newark
(4.2170°N, 12.9170°E)
Time: 00:13:39
(UTC+00:00)

N. Korean satellite - Pass Details

Date: 20 November 2019
Orbit: 456 x 506 km, 97.2° (Epoch: 09 December)

Event Time Altitude Azimuth Distance (km) Brightness Sun altitude
Rises 04:18:47 0° 23° (NNE) 2,553 10.3 -9.7°
Reaches altitude 10° 04:20:57 10° 31° (NNE) 1,666 9.4 -9.1°
Maximum altitude 04:24:18 38° 100° (E) 753 8.3 -8.4°
Drops below altitude 10° 04:27:36 10° 170° (S) 1,643 9.7 -7.6°
Sets 04:29:44 0° 178° (S) 2,513 10.5 -7.1°
